Tracking 17857 objects as of 1-October-2016
HD Live streaming from Space Station
objects crossing your sky now

OXP 1

Track OXP 1 now!
10-day predictions
OXP 1 is classified as:


NORAD ID: 22489
Int'l Code: 1993-009A
Perigee: 720.5 km
Apogee: 779.0 km
Inclination: 25.0 °
Period: 99.7 minutes
Semi major axis: 7120 km
RCS: 1.9581 m2 (large)
Launch date: February 9, 1993
Source: United States (US)
Launch site: AIR FORCE EASTERN TEST RANGE (AFETR)
Your satellite tracking list
Your tracking list is empty





NASA's NSSDC Master Catalog

Two Line Element Set (TLE):
1 22489U 93009A   16274.85121971  .00000321  00000-0  38639-4 0  9999
2 22489  24.9643 106.5829 0041079 117.4447 243.0245 14.44815787247984
Source of the keplerian elements: AFSPC

N2YO: 993